Terminal Aerodrome Forecast
Issued by NWS Grand Junction, CO

Home | Current Version | Previous Version | Text Only | Print | Product List | Glossary On
Versions: 1 2 3 4 5 6 7 8 9 10 11 12 13 14 15 16 17 18 19 20 21 22 23 24 25 26 27 28 29 30 31 32 33 34 35 36 37 38 39 40 41 42 43 44 45 46 47 48 49 50
000
FTUS45 KGJT 232340
TAFGJT
TAFGJT
TAF
KGJT 232340Z 2400/2424 35008KT P6SM VCTS SCT045CB BKN060
      TEMPO 2400/2403 VRB15G25KT -TSRA BKN045CB
     FM240300 11007KT P6SM VCSH BKN060 OVC100
     FM240800 11008KT P6SM VCSH SCT070 BKN100
     FM241800 31009KT P6SM VCTS SCT060CB BKN100=

USA.gov is the U.S. government's official web portal to all federal, state and local government web resources and services.